GW4448 Weather Reports


Display with metric or nautical units.
time (UTC)temp
F
wind
direction
speed
MPH
gust
MPH
rain 1hr
in
rain 24hr
in
rain mn
in
humidity
%
barometer
mb
20260507002534 69 234 6.0 13.0 0.00 0.00 0.00 62 1015.8
20260507002036 69 225 5.0 13.0 0.00 0.00 0.00 63 1015.9
20260507001601 69 163 6.0 13.0 0.00 0.00 0.00 63 1015.9
20260507001035 69 239 4.0 12.0 0.00 0.00 0.00 62 1015.8
20260507000535 69 265 4.0 15.0 0.00 0.00 0.00 62 1015.8
20260507000044 69 233 6.0 15.0 0.00 0.00 0.00 61 1015.9
20260506235537 69 194 4.0 14.0 0.00 0.00 0.00 61 1015.8
20260506235032 70 227 4.0 14.0 0.00 0.00 0.00 61 1015.9
20260506234548 70 213 6.0 16.0 0.00 0.00 0.00 61 1015.8
20260506234038 70 252 6.0 16.0 0.00 0.00 0.00 62 1015.9
20260506233537 70 236 7.0 16.0 0.00 0.00 0.00 61 1015.8
20260506233047 70 52 5.0 13.0 0.00 0.00 0.00 61 1015.8
20260506232533 70 267 6.0 16.0 0.00 0.00 0.00 63 1015.8
20260506232035 69 211 7.0 16.0 0.00 0.00 0.00 63 1015.9
20260506231548 69 221 7.0 15.0 0.00 0.00 0.00 63 1015.9
20260506231035 69 252 6.0 15.0 0.00 0.00 0.00 64 1015.9
20260506230536 69 236 7.0 15.0 0.00 0.00 0.00 62 1015.9
20260506230044 70 246 6.0 13.0 0.00 0.00 0.00 62 1015.9
20260506225535 70 224 5.0 17.0 0.00 0.00 0.00 63 1016.1
20260506225035 70 242 4.0 17.0 0.00 0.00 0.00 63 1016.1
20260506224549 70 240 6.0 17.0 0.00 0.00 0.00 63 1016.2
20260506224037 70 229 4.0 17.0 0.00 0.00 0.00 65 1016.3
20260506223535 69 259 6.0 17.0 0.00 0.00 0.00 64 1016.2
20260506223100 69 249 6.0 16.0 0.00 0.00 0.00 65 1016.3
20260506222535 69 243 8.0 16.0 0.00 0.00 0.00 64 1016.4
20260506222036 70 235 5.0 16.0 0.00 0.00 0.00 64 1016.5
20260506221543 70 221 7.0 16.0 0.00 0.00 0.00 64 1016.7
20260506221035 70 190 7.0 16.0 0.00 0.00 0.00 63 1016.6
20260506220535 70 217 6.0 16.0 0.00 0.00 0.00 63 1016.8
20260506220049 70 228 5.0 14.0 0.00 0.00 0.00 63 1016.9
20260506215535 71 269 7.0 15.0 0.00 0.00 0.00 62 1016.9
20260506215034 71 213 7.0 15.0 0.00 0.00 0.00 64 1017.0
20260506214543 71 240 6.0 15.0 0.00 0.00 0.00 63 1017.1
20260506214037 71 256 5.0 12.0 0.00 0.00 0.00 64 1017.1
20260506213538 70 218 6.0 12.0 0.00 0.00 0.00 64 1017.2
20260506213044 69 221 5.0 12.0 0.00 0.00 0.00 65 1017.3
20260506212535 69 307 5.0 12.0 0.00 0.00 0.00 64 1017.3
20260506212036 70 267 4.0 14.0 0.00 0.00 0.00 62 1017.3
20260506211549 70 286 5.0 14.0 0.00 0.00 0.00 62 1017.3
20260506211036 70 250 6.0 14.0 0.00 0.00 0.00 63 1017.3
20260506210534 70 286 5.0 14.0 0.00 0.00 0.00 63 1017.4
20260506210050 70 269 5.0 13.0 0.00 0.00 0.00 64 1017.4
20260506205534 70 219 5.0 13.0 0.00 0.00 0.00 63 1017.5
20260506205035 70 284 4.0 11.0 0.00 0.00 0.00 62 1017.4
20260506204548 70 227 5.0 11.0 0.00 0.00 0.00 63 1017.5
20260506204034 70 260 5.0 11.0 0.00 0.00 0.00 63 1017.5
20260506203535 70 215 3.0 12.0 0.00 0.00 0.00 62 1017.6
20260506203047 70 267 4.0 12.0 0.00 0.00 0.00 62 1017.5
20260506202535 70 240 6.0 12.0 0.00 0.00 0.00 63 1017.6
20260506202035 70 236 4.0 13.0 0.00 0.00 0.00 64 1017.7
20260506201553 69 258 4.0 13.0 0.00 0.00 0.00 65 1017.7
20260506201040 69 252 4.0 12.0 0.00 0.00 0.00 64 1017.7
20260506200534 70 267 5.0 11.0 0.00 0.00 0.00 63 1017.8
20260506200120 69 235 5.0 11.0 0.00 0.00 0.00 67 1017.8
20260506195535 69 212 4.0 11.0 0.00 0.00 0.00 67 1017.8
20260506195035 68 246 5.0 12.0 0.00 0.00 0.00 68 1017.8
20260506194544 68 263 5.0 12.0 0.00 0.00 0.00 67 1017.9
20260506194035 68 261 5.0 12.0 0.00 0.00 0.00 68 1018.0
20260506193538 68 262 5.0 12.0 0.00 0.00 0.00 68 1017.9
20260506193102 69 262 5.0 12.0 0.00 0.00 0.00 66 1018.0
20260506192534 68 211 4.0 13.0 0.00 0.00 0.00 68 1017.9
20260506192037 68 247 6.0 13.0 0.00 0.00 0.00 67 1017.9
20260506191554 68 240 5.0 13.0 0.00 0.00 0.00 70 1018.1
20260506191035 67 236 3.0 11.0 0.00 0.00 0.00 70 1018.0
20260506190535 68 232 5.0 11.0 0.00 0.00 0.00 68 1018.0
20260506190050 68 290 5.0 13.0 0.00 0.00 0.00 68 1018.0
20260506185541 69 221 4.0 13.0 0.00 0.00 0.00 69 1018.0
20260506185044 69 187 4.0 13.0 0.00 0.00 0.00 68 1018.0
20260506184553 68 243 4.0 10.0 0.00 0.00 0.00 69 1018.3
20260506184036 68 255 4.0 11.0 0.00 0.00 0.00 68 1018.3
20260506183535 68 257 4.0 11.0 0.00 0.00 0.00 69 1018.3
20260506183045 68 237 4.0 12.0 0.00 0.00 0.00 69 1018.3
20260506182534 68 250 3.0 14.0 0.00 0.00 0.00 70 1018.2
20260506182034 68 165 5.0 14.0 0.00 0.00 0.00 70 1018.3
20260506181544 68 220 5.0 12.0 0.00 0.00 0.00 68 1018.3
20260506181035 69 258 3.0 10.0 0.00 0.00 0.00 68 1018.2
20260506180535 69 213 5.0 13.0 0.00 0.00 0.00 68 1018.3
20260506180050 69 211 4.0 13.0 0.00 0.00 0.00 66 1018.2
20260506175535 69 202 3.0 11.0 0.00 0.00 0.00 66 1018.3
20260506175035 69 184 3.0 9.0 0.00 0.00 0.00 67 1018.3
20260506174552 68 225 2.0 9.0 0.00 0.00 0.00 68 1018.3
20260506174037 68 211 2.0 7.0 0.00 0.00 0.00 68 1018.3
20260506173538 67 250 2.0 7.0 0.00 0.00 0.00 67 1018.3
20260506173041 67 246 3.0 8.0 0.00 0.00 0.00 67 1018.3
20260506172534 67 182 3.0 8.0 0.00 0.00 0.00 68 1018.2
20260506172034 66 244 1.0 7.0 0.00 0.00 0.00 68 1018.2
20260506171552 66 266 3.0 8.0 0.00 0.00 0.00 68 1018.3
20260506171035 66 227 3.0 8.0 0.00 0.00 0.00 67 1018.2
20260506170535 66 225 3.0 10.0 0.00 0.00 0.00 66 1018.2
20260506170047 67 258 3.0 10.0 0.00 0.00 0.00 67 1018.2
20260506165536 66 232 3.0 9.0 0.00 0.00 0.00 67 1018.2
20260506165035 67 230 3.0 8.0 0.00 0.00 0.00 66 1018.1
20260506164543 66 215 1.0 8.0 0.00 0.00 0.00 66 1018.2
20260506164035 66 238 3.0 7.0 0.00 0.00 0.00 65 1018.3
20260506163535 66 284 1.0 8.0 0.00 0.00 0.00 67 1018.3
20260506163048 66 142 2.0 8.0 0.00 0.00 0.00 66 1018.3
20260506162534 66 179 2.0 6.0 0.00 0.00 0.00 66 1018.3
20260506162036 65 126 1.0 6.0 0.00 0.00 0.00 67 1018.3
20260506161553 65 144 1.0 6.0 0.00 0.00 0.00 66 1018.2
20260506161034 64 0 2.0 6.0 0.00 0.00 0.00 68 1018.4
20260506160538 64 0 1.0 4.0 0.00 0.00 0.00 68 1018.4
20260506160040 63 352 1.0 6.0 0.00 0.00 0.00 67 1018.4
20260506155534 64 79 2.0 6.0 0.00 0.00 0.00 68 1018.3
20260506155034 63 44 1.0 4.0 0.00 0.00 0.00 67 1018.3
20260506154538 63 58 0.0 4.0 0.00 0.00 0.00 69 1018.3
20260506154035 62 55 2.0 5.0 0.00 0.00 0.00 68 1018.3
20260506153535 62 53 1.0 9.0 0.00 0.00 0.00 69 1018.4
20260506153045 61 103 2.0 9.0 0.00 0.00 0.00 70 1018.4
20260506152534 61 39 3.0 9.0 0.00 0.00 0.00 70 1018.4
20260506152034 61 98 3.0 7.0 0.00 0.00 0.00 71 1018.3
20260506151543 60 51 2.0 11.0 0.00 0.00 0.00 73 1018.3
20260506151034 60 76 5.0 11.0 0.00 0.00 0.00 74 1018.3
20260506150534 59 47 4.0 9.0 0.00 0.00 0.00 75 1018.3
20260506150043 59 49 3.0 10.0 0.00 0.00 0.00 76 1018.3
20260506145534 58 96 5.0 10.0 0.00 0.00 0.00 76 1018.2
20260506145034 58 42 2.0 10.0 0.00 0.00 0.00 78 1018.2
20260506144540 57 92 4.0 8.0 0.00 0.00 0.00 78 1018.1
20260506144034 57 46 2.0 11.0 0.00 0.00 0.00 79 1018.1
20260506143535 56 67 4.0 11.0 0.00 0.00 0.00 80 1018.2
20260506143044 56 35 5.0 11.0 0.00 0.00 0.00 81 1018.1
20260506142535 55 64 4.0 10.0 0.00 0.00 0.00 82 1018.1
20260506142033 54 23 0.0 9.0 0.00 0.00 0.00 84 1018.0
20260506141545 54 0 2.0 11.0 0.00 0.00 0.00 84 1018.1
20260506141036 54 34 4.0 11.0 0.00 0.00 0.00 84 1018.0
20260506140535 53 79 2.0 6.0 0.00 0.00 0.00 85 1018.0
20260506140047 53 0 1.0 5.0 0.00 0.00 0.00 86 1018.0
20260506135535 53 0 0.0 5.0 0.00 0.00 0.00 86 1017.9
20260506135034 53 63 2.0 5.0 0.00 0.00 0.00 86 1017.9
20260506134610 53 97 0.0 5.0 0.00 0.00 0.00 86 1017.8
20260506134048 52 0 1.0 5.0 0.00 0.00 0.00 86 1017.9
20260506133537 52 40 0.0 9.0 0.00 0.00 0.00 86 1017.8
20260506133048 52 0 1.0 9.0 0.00 0.00 0.00 87 1017.7
20260506132537 52 30 3.0 9.0 0.00 0.00 0.00 87 1017.7
20260506132037 52 46 1.0 10.0 0.00 0.00 0.00 87 1017.7
20260506131604 52 81 2.0 10.0 0.00 0.00 0.00 88 1017.7
20260506131035 52 31 1.0 4.0 0.00 0.00 0.00 87 1017.7
20260506130535 52 0 0.0 4.0 0.00 0.00 0.00 88 1017.7
20260506130044 52 22 0.0 4.0 0.00 0.00 0.00 88 1017.6
20260506125533 52 0 0.0 9.0 0.00 0.00 0.00 88 1017.6
20260506125034 52 22 1.0 9.0 0.00 0.00 0.00 89 1017.6
20260506124543 52 57 1.0 4.0 0.00 0.00 0.00 89 1017.5
20260506124034 52 349 0.0 3.0 0.00 0.00 0.00 89 1017.5
20260506123537 52 5 0.0 3.0 0.00 0.00 0.00 89 1017.4
20260506123045 52 0 0.0 3.0 0.00 0.00 0.00 89 1017.4
20260506122535 52 0 0.0 4.0 0.00 0.00 0.00 89 1017.3
20260506122039 52 0 1.0 5.0 0.00 0.00 0.00 89 1017.2
20260506121539 52 17 1.0 5.0 0.00 0.00 0.00 89 1017.1
20260506121037 52 0 1.0 6.0 0.00 0.00 0.00 90 1017.1
20260506120535 52 17 1.0 6.0 0.00 0.00 0.00 90 1017.0
20260506120044 52 336 1.0 5.0 0.00 0.00 0.00 91 1017.1
20260506115536 52 0 1.0 5.0 0.00 0.00 0.00 91 1017.1
20260506115036 52 46 1.0 5.0 0.00 0.00 0.00 91 1017.0
20260506114549 52 46 1.0 5.0 0.00 0.00 0.00 92 1017.0
20260506114034 51 43 0.0 6.0 0.00 0.00 0.00 93 1017.1
20260506113536 51 17 2.0 6.0 0.00 0.00 0.00 93 1017.0
20260506113044 51 355 1.0 6.0 0.00 0.00 0.00 93 1017.0
20260506112535 51 13 0.0 4.0 0.00 0.00 0.00 93 1017.0
20260506112037 51 0 0.0 4.0 0.00 0.00 0.00 93 1017.1
20260506111547 51 24 0.0 4.0 0.00 0.00 0.00 93 1017.0
20260506111034 51 0 0.0 4.0 0.00 0.00 0.00 93 1017.0
20260506110534 51 27 0.0 4.0 0.00 0.00 0.00 94 1017.1
20260506110051 51 0 0.0 4.0 0.00 0.00 0.00 94 1017.1
20260506105534 51 350 1.0 2.0 0.00 0.00 0.00 94 1017.1
20260506105036 51 343 0.0 2.0 0.00 0.00 0.00 93 1017.0
20260506104545 51 0 0.0 2.0 0.00 0.00 0.00 93 1017.0
20260506104034 51 343 0.0 2.0 0.00 0.00 0.00 93 1017.0
20260506103533 51 0 0.0 2.0 0.00 0.00 0.00 92 1016.9
20260506103047 51 0 0.0 2.0 0.00 0.00 0.00 92 1016.9
20260506102534 51 343 0.0 2.0 0.00 0.00 0.00 92 1016.8
20260506102037 51 0 0.0 1.0 0.00 0.00 0.00 91 1016.8
20260506101544 52 0 0.0 1.0 0.00 0.00 0.00 92 1016.8
20260506101034 52 0 0.0 1.0 0.00 0.00 0.00 92 1016.8
20260506100534 52 0 0.0 2.0 0.00 0.00 0.00 92 1016.9
20260506100044 52 0 0.0 2.0 0.00 0.00 0.00 92 1017.0
20260506095534 52 0 0.0 2.0 0.00 0.00 0.00 92 1016.9
20260506095037 52 0 0.0 2.0 0.00 0.00 0.00 92 1017.0
20260506094541 52 343 0.0 2.0 0.00 0.00 0.00 92 1017.0
20260506094039 52 0 0.0 2.0 0.00 0.00 0.00 92 1017.0
20260506093534 52 342 0.0 3.0 0.00 0.00 0.00 92 1017.1
20260506093051 52 332 1.0 3.0 0.00 0.00 0.00 92 1017.2
20260506092534 52 344 0.0 3.0 0.00 0.00 0.00 92 1017.1
20260506092034 52 333 0.0 4.0 0.00 0.00 0.00 93 1017.2
20260506091544 52 0 0.0 4.0 0.00 0.00 0.00 93 1017.3
20260506091034 52 341 1.0 4.0 0.00 0.00 0.00 93 1017.3
20260506090534 52 345 1.0 4.0 0.00 0.00 0.00 93 1017.2
20260506090045 52 336 0.0 4.0 0.00 0.00 0.00 93 1017.3
20260506085534 52 342 0.0 4.0 0.00 0.00 0.00 93 1017.3
20260506085035 52 342 1.0 4.0 0.00 0.00 0.00 93 1017.2
20260506084545 52 0 0.0 4.0 0.00 0.00 0.00 93 1017.3
20260506084036 52 0 1.0 4.0 0.00 0.00 0.00 93 1017.5
20260506083535 52 0 1.0 3.0 0.00 0.00 0.00 93 1017.4
20260506083042 52 0 0.0 2.0 0.00 0.00 0.00 93 1017.4
20260506082536 52 335 0.0 3.0 0.00 0.00 0.00 92 1017.4
20260506082035 52 0 0.0 3.0 0.00 0.00 0.00 92 1017.4
20260506081549 52 0 1.0 4.0 0.00 0.00 0.00 93 1017.4
20260506081034 52 0 0.0 4.0 0.00 0.00 0.00 93 1017.5
20260506080534 52 0 1.0 4.0 0.00 0.00 0.00 93 1017.5
20260506073043 52 0 0.0 2.0 0.00 0.00 0.00 94 1017.3
20260506072534 52 89 0.0 2.0 0.00 0.00 0.00 94 1017.2
20260506072034 52 0 0.0 2.0 0.00 0.00 0.00 94 1017.3
20260506071545 52 0 0.0 3.0 0.00 0.00 0.00 93 1017.1
20260506071038 52 0 0.0 3.0 0.00 0.00 0.00 93 1017.2
20260506070536 52 89 0.0 3.0 0.00 0.00 0.00 93 1017.2
20260506062034 51 89 0.0 2.0 0.00 0.00 0.00 95 1016.5
20260506061544 51 0 0.0 1.0 0.00 0.00 0.00 94 1016.6
20260506061035 51 0 0.0 1.0 0.00 0.00 0.00 93 1016.6
20260506060536 51 0 0.0 2.0 0.00 0.00 0.00 93 1016.5
20260506051036 52 0 0.0 2.0 0.00 0.00 0.00 91 1016.1
20260506050536 52 0 0.0 2.0 0.00 0.00 0.00 90 1016.1
20260506045036 53 0 0.0 0.0 0.00 0.00 0.00 89 1016.1
20260506044543 53 0 0.0 1.0 0.00 0.00 0.00 89 1016.0
20260506044035 53 0 0.0 2.0 0.00 0.00 0.00 89 1015.9
20260506043537 54 0 0.0 2.0 0.00 0.00 0.00 88 1015.9
20260506043043 54 89 0.0 2.0 0.00 0.00 0.00 88 1015.9
20260506042534 55 0 0.0 2.0 0.00 0.00 0.00 88 1015.8
20260506042035 55 89 0.0 2.0 0.00 0.00 0.00 88 1015.8
20260506041546 55 89 0.0 2.0 0.00 0.00 0.00 88 1015.8
20260506041034 55 89 0.0 6.0 0.00 0.00 0.00 88 1015.8
20260506040534 55 89 0.0 6.0 0.00 0.00 0.00 88 1015.8
20260506040046 55 106 1.0 6.0 0.00 0.00 0.00 88 1015.6
20260506035535 55 86 1.0 4.0 0.00 0.00 0.00 87 1015.5
20260506035035 55 0 1.0 4.0 0.00 0.00 0.00 87 1015.4
20260506034543 55 0 1.0 4.0 0.00 0.00 0.00 86 1015.3
20260506034036 55 0 1.0 3.0 0.00 0.00 0.00 86 1015.2
20260506033535 56 0 0.0 3.0 0.00 0.00 0.00 85 1015.1
20260506033039 56 99 2.0 3.0 0.00 0.00 0.00 84 1015.0
20260506032535 57 99 0.0 2.0 0.00 0.00 0.00 82 1015.0
20260506032035 57 0 0.0 2.0 0.00 0.00 0.00 81 1014.9
20260506031543 58 0 1.0 2.0 0.00 0.00 0.00 81 1014.8
20260506031035 58 0 0.0 1.0 0.00 0.00 0.00 80 1014.7
20260506030535 59 0 0.0 3.0 0.00 0.00 0.00 79 1014.7
20260506030044 59 0 0.0 3.0 0.00 0.00 0.00 79 1014.7
20260506025534 60 99 1.0 4.0 0.00 0.00 0.00 79 1014.6
20260506025035 60 99 0.0 4.0 0.00 0.00 0.00 78 1014.5
20260506024551 60 99 1.0 6.0 0.00 0.00 0.00 77 1014.4
20260506024035 61 99 2.0 6.0 0.00 0.00 0.00 77 1014.2
20260506023535 61 99 2.0 6.0 0.00 0.00 0.00 76 1014.3
20260506023052 62 86 0.0 3.0 0.00 0.00 0.00 75 1014.2
20260506022536 62 0 0.0 3.0 0.00 0.00 0.00 75 1014.2
20260506022035 62 0 0.0 4.0 0.00 0.00 0.00 75 1014.1
20260506021548 62 219 0.0 4.0 0.00 0.00 0.00 74 1014.0
20260506021035 63 232 1.0 3.0 0.00 0.00 0.00 74 1014.0
20260506020535 63 0 1.0 3.0 0.00 0.00 0.00 73 1014.1
20260506020053 63 142 1.0 6.0 0.00 0.00 0.00 73 1014.1
20260506015535 63 200 1.0 6.0 0.00 0.00 0.00 73 1014.0
20260506015035 64 0 1.0 6.0 0.00 0.00 0.00 73 1013.9
20260506014544 64 0 0.0 4.0 0.00 0.00 0.00 73 1013.8
20260506014035 64 203 1.0 7.0 0.00 0.00 0.00 73 1013.9
20260506013535 64 194 1.0 7.0 0.00 0.00 0.00 73 1013.8
20260506013042 64 151 2.0 7.0 0.00 0.00 0.00 73 1013.8
20260506012535 64 220 2.0 6.0 0.00 0.00 0.00 74 1013.9
20260506012035 64 213 1.0 8.0 0.00 0.00 0.00 73 1014.0
20260506011602 64 165 2.0 8.0 0.00 0.00 0.00 73 1013.8
20260506011036 64 0 2.0 8.0 0.00 0.00 0.00 72 1013.9
20260506010535 65 183 2.0 8.0 0.00 0.00 0.00 72 1013.8
20260506010047 64 161 2.0 8.0 0.00 0.00 0.00 72 1013.9
20260506005536 64 123 2.0 8.0 0.00 0.00 0.00 73 1013.7
20260506005036 64 0 4.0 12.0 0.00 0.00 0.00 73 1014.0
20260506004558 64 0 5.0 12.0 0.00 0.00 0.00 73 1013.8
20260506004035 63 232 5.0 11.0 0.00 0.00 0.00 75 1013.8
20260506003535 62 0 3.0 10.0 0.00 0.00 0.00 75 1013.6
20260506003044 62 199 4.0 11.0 0.00 0.00 0.00 75 1013.6